Regional Weather Roundup
Issued by NWS San Angelo, TX

Current Version | Previous Version | Text Only | Print | Product List | Glossary On
Versions: 1 2 3 4 5 6 7 8 9 10 11 12 13 14 15 16 17 18 19 20 21 22 23 24 25 26 27 28 29 30 31 32 33 34 35 36 37 38 39 40 41 42 43 44 45 46 47 48 49 50
000
ASUS44 KSJT 212010
RWRSJT
WEST CENTRAL TEXAS REGIONAL WEATHER ROUNDUP
NATIONAL WEATHER SERVICE SAN ANGELO TX
300 PM CDT SUN SEP 21 2014

NOTE: "FAIR" INDICATES FEW OR NO CLOUDS BELOW 12,000 FEET WITH NO
SIGNIFICANT WEATHER AND/OR OBSTRUCTIONS TO VISIBILITY.

TXZ049-054-064>066-071>073-076>078-098-099-113-114-127-128-139-140-
154-155-168>170-212100
...LOCATIONS ACROSS WEST CENTRAL TEXAS...

CITY           SKY/WX    TMP DP  RH WIND       PRES   REMARKS
SAN ANGELO     CLOUDY    84  67  56 E10       30.08F
ABILENE        MOSUNNY   86  62  44 SE10      30.09F
DYESS AFB      MOSUNNY   86  55  35 E9        30.08F
JUNCTION       CLOUDY    86  64  47 E13G20    30.05F
SWEETWATER     PTSUNNY   80  69  69 S9        30.15F
BROWNWOOD      MOSUNNY   86  66  51 E12       30.07F
COLEMAN        PTCLDY    87  63  44 E8        30.08F
SONORA         MOSUNNY   84  64  51 E8G15     30.11F
OZONA          FAIR      81  63  54 SE8       30.10F
BRADY          PTSUNNY   84  64  51 NE7       30.08F
$$

TEXAS PANHANDLE/OKLAHOMA PANHANDLE

CITY           SKY/WX    TMP DP  RH WIND       PRES   REMARKS
AMARILLO       PTSUNNY   79  63  57 NE14      30.20F
BORGER         PTSUNNY   79  64  60 NE16G25   30.20F
CANADIAN       CLOUDY    71  59  67 E17G23    30.21S
DALHART        CLOUDY    80  61  52 E18G25    30.27F
DUMAS          CLOUDY    74  64  70 NE14      30.25F
GUYMON         NOT AVBL
HEREFORD       MOCLDY    80  66  63 NE7       30.21F
PAMPA          MOCLDY    76  65  67 NE18      30.22F
PERRYTON       MOSUNNY   83  51  32 E13G20    30.23F
$$

SOUTHERN PANHANDLE/SOUTH PLAINS/ROLLING PLAINS

CITY           SKY/WX    TMP DP  RH WIND       PRES   REMARKS
LUBBOCK        CLOUDY    70  66  87 S16       30.19F
SNYDER         PTSUNNY   78  68  71 SE8       30.13F
CHILDRESS      MOSUNNY   90  65  43 E9        30.11F
SEMINOLE       RAIN      68  67  96 CALM      30.20F
$$

PERMIAN BASIN

CITY           SKY/WX    TMP DP  RH WIND       PRES   REMARKS
MIDLAND        CLOUDY    73  67  81 NE16      30.13F
ODESSA         CLOUDY    73  67  81 E23       30.13F
WINK           CLOUDY    80  69  69 SE10      30.09F
$$

FAR WEST/SOUTHWEST MOUNTAINS/TRANS PECOS

CITY           SKY/WX    TMP DP  RH WIND       PRES   REMARKS
ALPINE         CLOUDY    78  64  61 E9        30.21F
DRYDEN           N/A     90  68  48 E14       30.03F
EL PASO        PTSUNNY   85  62  46 VRB7      30.10F
FORT STOCKTON  PTSUNNY   81  66  60 SE12      30.09F
GUADALUPE PASS CLOUDY    72  64  76 NE16        N/A
MARFA          PTSUNNY   73  64  73 SE14      30.20F
PECOS          CLOUDY    81  68  63 E14       30.07F
$$

DALLAS/FORT WORTH METROPLEX

CITY           SKY/WX    TMP DP  RH WIND       PRES   REMARKS
DFW AIRPORT    MOSUNNY   92  61  35 SE5       30.04F
FTW MEACHAM    SUNNY     94  60  32 VRB3      30.03F
DAL-EXECUTIVE  MOSUNNY   92  61  35 VRB3      30.03F
GRAND PRAIRIE  SUNNY     91  57  31 MISG      30.05F
ADDISON        MOSUNNY   91  59  33 CALM      30.05
MESQUITE       PTCLDY    90  57  33 CALM      30.04F
LANCASTER      CLEAR     92  57  31 E6        30.04F
$$

NORTH CENTRAL TEXAS

CITY           SKY/WX    TMP DP  RH WIND       PRES   REMARKS
SHRMAN/DENISON CLEAR     91  62  39 E3        30.07F
GAINESVILLE    MOSUNNY   87  63  44 CALM      30.08F
BRIDGEPORT     CLEAR     91  56  30 E5        30.07F
DENTON         CLOUDY    90  61  37 NE13      30.04F
WAXAHACHIE     PTCLDY    90  55  29 SE3       30.04F
GRANBURY       CLEAR     92  61  34 SE5       30.05F
$$

WESTERN NORTH TEXAS

CITY           SKY/WX    TMP DP  RH WIND       PRES   REMARKS
WICHITA FALLS  PTSUNNY   91  65  41 SE8       30.05F
VERNON         CLEAR     91  63  38 E6        30.07F
BRECKENRIDGE   MOCLDY    92  58  32 NE9       30.05F
COMANCHE       SUNNY     90  62  39 E6        30.07F
$$

CENTRAL AND SOUTH CENTRAL TEXAS

CITY           SKY/WX    TMP DP  RH WIND       PRES   REMARKS
AUSTIN/BERGSTM MOSUNNY   90  68  48 NE10      30.01F
WACO           MOSUNNY   91  64  40 VRB6      30.03F
HILLSBORO      PTCLDY    93  60  33 SE5G16    30.03F
TEMPLE         MOSUNNY   90  64  43 NE7       30.03F
KILLEEN-GRAY   PTSUNNY   90  63  40 NE5       30.04F
FORT HOOD      PTSUNNY   94  66  39 NE7       30.04F
GEORGETOWN     MOSUNNY   88  66  48 E8        30.04F
LAGO VISTA     MOCLDY    91  65  41 E9        30.06F
SAN MARCOS     MOSUNNY   91  66  43 NE10G18   30.02F
NEW BRAUNFELS  PTSUNNY   89  66  46 NE12      30.00F
RANDOLPH AFB   MOSUNNY   90  66  45 E12       30.01F
SAN ANTONIO    MOSUNNY   92  67  43 E12G20    30.01F
STINSON        MOSUNNY   89  65  44 E16       29.98F
PLEASANTON     NOT AVBL
LA GRANGE      MOSUNNY   90  70  51 NE7       29.99F
GIDDINGS       PTCLDY    88  66  47 E8        30.05F
$$

EAST TEXAS

CITY           SKY/WX    TMP DP  RH WIND       PRES   REMARKS
PARIS          SUNNY     90  64  43 N5        30.05F
CLARKSVILLE    NOT AVBL
TYLER          SUNNY     92  63  38 NE6       30.03F
LONGVIEW       MOSUNNY   93  63  36 VRB7      30.01F
PALESTINE      PTCLDY    90  65  43 SE5       30.04F
NACOGDOCHES    MOSUNNY   90  64  43 CALM      30.02F
$$

TEXAS HILL COUNTRY AND EDWARDS PLATEAU

CITY           SKY/WX    TMP DP  RH WIND       PRES   REMARKS
LLANO          PTCLDY    91  64  40 E7        30.07F
HORSESHOE BAY  FAIR      88  63  43 CALM      30.05F
KERRVILLE      SUNNY     87  63  44 SE10G18   30.06F
FREDERICKSBRG  MOSUNNY   84  64  49 SE8       30.07F
ROCKSPRINGS    PTCLDY    79  70  73 CALM      30.09F
HONDO          CLOUDY    90  64  42 E15       30.01F
UVALDE         PTCLDY    88  68  51 E12G18    30.00F
DEL RIO        MOSUNNY   90  69  50 E8        29.98F
$$

SOUTHEAST TEXAS

CITY           SKY/WX    TMP DP  RH WIND       PRES   REMARKS
COLLEGE STN    MOSUNNY   89  66  46 VRB7      30.02F
CALDWELL       PTCLDY    88  64  45 CALM      30.06F
CROCKETT       CLEAR     93  72  49 NE7       30.06F
BRENHAM        SUNNY     91  65  42 E6        30.02F
HUNTSVILLE     SUNNY     90  64  42 CALM      30.03F
CONROE         SUNNY     88  65  46 VRB6      30.02F
HOUSTON BUSH   MOSUNNY   90  70  51 E9        30.00F
HOUSTON HOBBY  MOSUNNY   89  69  51 E7        29.99F
PERLAND        SUNNY     90  66  45 E9        30.01F
WHARTON        PTCLDY    89  67  47 E14       29.99F
$$

THE UPPER TEXAS COAST

CITY           SKY/WX    TMP DP  RH WIND       PRES   REMARKS
ORANGE         PTCLDY    87  67  52 N5        30.01F
PORT ARTHUR    MOSUNNY   90  70  51 N9        29.99F
GALVESTON      SUNNY     86  71  60 E12       30.01F
ANGLETON       MOSUNNY   87  70  56 E15       29.99F
BAY CITY       CLEAR     90  71  52 E14G20    29.98F
$$

TEXAS COASTAL BEND, RIO GRANDE PLAINS DEEP SOUTH TEXAS

CITY           SKY/WX    TMP DP  RH WIND       PRES   REMARKS
VICTORIA       MOSUNNY   90  71  53 E14       29.98F
BEEVILLE       FAIR      91  68  45 E12G25    29.96F
ROCKPORT       SUNNY     88  74  63 E16       29.95F
PORT ARANSAS   PTCLDY    85  76  74 E13G18    29.96F
PORT LAVACA    MOCLDY    88  75  64 E13       29.97F
CORPUS CHRISTI PTSUNNY   88  77  69 E15G23    29.95F
KINGSVILLE NAS PTSUNNY   89  77  67 E17       29.94F
COTULLA        HVY RAIN  78  73  84 E10       30.00S
LAREDO         MOSUNNY   88  73  60 E14       29.98F
BROWNSVILLE    CLOUDY    84  76  76 E8        29.93F
PORT ISABEL    CLOUDY    86  75  69 NE8       29.93F
HEBBRONVILLE     N/A     86  73  65 E16G22    29.96F
MCALLEN        LGT RAIN  87  75  67 NE14      29.92F
WESLACO        PTSUNNY   89  75  63 NE15G22   29.92S
FALFURRIAS     PTCLDY   N/A N/A N/A E16G26    29.93F
EDINBURG       RAIN      81  75  82 E20       29.94S
$$



USA.gov is the U.S. government's official web portal to all federal, state and local government web resources and services.